Find Starlink 6176

NORAD ID: 56388 Int'l Des: 2023-061 Owner: SPXS Country: US Constellation: starlink operational
LEOCIRCULAR

Live Position

Loading 3D Globe...

About Starlink 6176

Description loading...

Upcoming Passes

Passes for default location (London). Set your location on the main map for personalized predictions.

Altitude History

Loading altitude history...

Two-Line Element Set

1 56388U 23061Q 26126.28529530 -.00000193 00000-0 25194-5 0 9993
2 56388 43.0044 232.9987 0001749 287.3533 72.7127 15.27572180165555
Epoch: May 6, 2026 • Age: 23 hours

Current Status

Altitude 495.2 km
Velocity 7.62 km/s
Sub-Earth Point -42.96°S, 170.96°W
Launch Date May 4, 2023
Age 3 years
Type internet

Technical Details

Classification Payload
Mass 305.00 kg
Dry Mass 290.00 kg
Total Mass 305.00 kg
Length 0.20 m
Diameter 2.80 m
Span 9.00 m
Shape Box + pan
Manufacturer SPXS
Bus Type Starlink
Phase Status In Orbit
Owner/State SPXS/US

Most Searched